Regional Weather Roundup
Issued by NWS Green Bay, WI

Home | Current Version | Previous Version | Text Only | Print | Product List | Glossary On
Versions: 1 2 3 4 5 6 7 8 9 10 11 12 13 14 15 16 17 18 19 20 21 22 23 24 25 26 27 28 29 30 31 32 33 34 35 36 37 38 39 40 41 42 43 44 45 46 47 48 49 50
000
ASUS43 KGRB 270759
RWRGRB

NORTH-CENTRAL AND NORTHEAST WISCONSIN REGIONAL WEATHER ROUNDUP
NATIONAL WEATHER SERVICE GREEN BAY WI
300 AM CDT FRI MAR 27 2015

WIZ005-009-010>012-018-019-270900-
NORTH CENTRAL WISCONSIN

CITY           SKY/WX    TMP DP  RH WIND       PRES   REMARKS
IRONWOOD       CLOUDY    19   7  58 N7        30.16R
MANITOWISH WTR NOT AVBL
ARBOR VITAE    NOT AVBL
EAGLE RIVER    NOT AVBL
LAND O LAKES   NOT AVBL
RHINELANDER    PTCLDY    12   7  80 N3        30.13R
PHILLIPS       CLOUDY    15   8  72 NW3       30.14S
ANTIGO         NOT AVBL
TOMAHAWK       NOT AVBL
MERRILL        NOT AVBL
$$

WIZ013-073-270900-
NORTHEAST WISCONSIN

CITY           SKY/WX    TMP DP  RH WIND       PRES   REMARKS
IRON MOUNTAIN  CLEAR     10   3  73 N6        30.11S WCI   0
MARINETTE      CLEAR     16   3  57 NW6       30.14S WCI   7
$$

WIZ017-030-035>037-045-270900-
CENTRAL WISCONSIN

CITY           SKY/WX    TMP DP  RH WIND       PRES   REMARKS
MEDFORD        NOT AVBL
WAUSAU         CLOUDY    16   6  65 NW7       30.13S WCI   6
MOSINEE        CLOUDY    18  10  73 NW5       30.15F
MARSHFIELD     CLEAR     13   7  77 NW5       30.15S WCI   5
WISC RAPIDS    CLEAR     15   5  64 CALM      30.18S
STEVENS POINT  NOT AVBL
WAUPACA        NOT AVBL
SHAWANO        NOT AVBL
CLINTONVILLE   CLEAR     19   5  53 NW5       30.17R
$$

WIZ038-039-048-051-270900-
FOX VALLEY

CITY           SKY/WX    TMP DP  RH WIND       PRES   REMARKS
NWS GREEN BAY  CLEAR     20   9  62 N8        30.16S
APPLETON       NOT AVBL
OSHKOSH        CLEAR     18   5  57 N9        30.15R WCI   7
FOND DU LAC    MOCLDY    20   4  50 N15       30.15R WCI   6
$$

WIZ022-050-052-270900-
EAST CENTRAL WISCONSIN

CITY           SKY/WX    TMP DP  RH WIND       PRES   REMARKS
STURGEON BAY   CLEAR     16   7  67 N9        30.15S WCI   4
MANITOWOC      NOT AVBL
SHEBOYGAN      PTCLDY    20   4  50 N14       30.12F WCI   7
$$

LMZ563-521-522-541>543-270900-
LAKESHORE

STATION/POSITION TIME  TEMP    WIND        PRES    VSBY  WAVE
                       AIR SEA DIR/SP/G                  HT/PER
                 (UTC) (F)     (DEG/KT/KT) (MB)    (MI)  (FT/S)
SHEBOYGAN LKSHOR 0700   22     360/ 22/ 27 1021.5R
KEWAUNEE LKSHORE 0700   19     350/  5/  9 1019.8F
NORTHPORT PIER   0700   20     360/ 15/ 22 1020.3R
SISTER BAY LKSHO 0700   18      10/ 12/ 14   N/A
CHAMBERS ISLAND  0700   18     310/ 13/ 16 1020.7S
MENOMINEE LKSHOR 0700   17     300/  7     1021.5R
$$


USA.gov is the U.S. government's official web portal to all federal, state and local government web resources and services.